GW0655 Weather Reports


Display with metric or nautical units.
time (UTC)temp
F
wind
direction
speed
MPH
gust
MPH
rain 1hr
in
rain 24hr
in
rain mn
in
humidity
%
barometer
mb
20260508065047 63 333 2.0 2.0 0.00 0.00 0.00 78 1016.2
20260508064544 63 341 2.0 2.0 0.00 0.00 0.00 78 1016.2
20260508064042 63 305 2.0 2.0 0.00 0.00 0.00 78 1016.9
20260508063539 63 288 1.0 1.0 0.00 0.00 0.00 77 1016.9
20260508063037 63 326 2.0 2.0 0.00 0.00 0.00 77 1016.9
20260508062534 63 285 0.0 0.0 0.00 0.00 0.00 78 1016.9
20260508062031 63 357 0.0 0.0 0.00 0.00 0.00 78 1016.9
20260508061529 63 307 1.0 1.0 0.00 0.00 0.00 77 1016.9
20260508061025 62 271 0.0 0.0 0.00 0.00 0.00 78 1016.9
20260508060522 62 282 0.0 0.0 0.00 0.00 0.00 78 1016.9
20260508060020 62 292 0.0 1.0 0.00 0.00 0.00 78 1016.5
20260508055515 63 338 1.0 2.0 0.00 0.00 0.00 78 1016.9
20260508055012 63 282 0.0 0.0 0.00 0.00 0.00 78 1017.2
20260508054508 62 271 0.0 0.0 0.00 0.00 0.00 78 1016.9
20260508054006 62 308 1.0 1.0 0.00 0.00 0.00 78 1016.9
20260508053503 62 293 1.0 1.0 0.00 0.00 0.00 78 1016.9
20260508053001 62 332 1.0 1.0 0.00 0.00 0.00 77 1016.5
20260508052458 62 305 0.0 1.0 0.00 0.00 0.00 77 1016.5
20260508051954 62 351 2.0 2.0 0.00 0.00 0.00 77 1016.2
20260508051449 62 331 0.0 1.0 0.00 0.00 0.00 78 1016.2
20260508050946 63 348 2.0 2.0 0.00 0.00 0.00 77 1016.5
20260508050442 63 354 0.0 1.0 0.00 0.00 0.00 77 1017.2
20260508045939 63 239 1.0 1.0 0.00 0.00 0.00 78 1017.2
20260508045437 62 293 1.0 1.0 0.00 0.00 0.00 78 1016.9
20260508044934 63 313 2.0 2.0 0.00 0.00 0.00 77 1016.2
20260508044431 62 44 0.0 0.0 0.00 0.00 0.00 78 1016.2
20260508043926 62 331 1.0 2.0 0.00 0.00 0.00 78 1016.5
20260508043424 62 336 2.0 2.0 0.00 0.00 0.00 77 1016.5
20260508042920 62 331 2.0 2.0 0.00 0.00 0.00 77 1016.5
20260508042418 62 305 1.0 1.0 0.00 0.00 0.00 78 1016.5
20260508041914 62 309 0.0 0.0 0.00 0.00 0.00 78 1016.9
20260508041411 62 297 1.0 1.0 0.00 0.00 0.00 77 1016.9
20260508040908 62 309 1.0 1.0 0.00 0.00 0.00 78 1017.2
20260508040405 62 307 0.0 1.0 0.00 0.00 0.00 77 1017.2
20260508035903 62 290 1.0 1.0 0.00 0.00 0.00 78 1017.2
20260508035400 62 343 1.0 1.0 0.00 0.00 0.00 78 1017.2
20260508034856 62 285 0.0 1.0 0.00 0.00 0.00 78 1017.5
20260508034354 63 296 1.0 1.0 0.00 0.00 0.00 78 1017.5
20260508033850 62 286 1.0 1.0 0.00 0.00 0.00 78 1017.5
20260508033348 62 303 2.0 2.0 0.00 0.00 0.00 78 1017.9
20260508032846 62 272 0.0 1.0 0.00 0.00 0.00 78 1017.5
20260508032343 62 264 0.0 0.0 0.00 0.00 0.00 78 1017.5
20260508031839 62 268 0.0 0.0 0.00 0.00 0.00 78 1017.9
20260508031336 63 272 0.0 0.0 0.00 0.00 0.00 78 1017.5
20260508030833 62 267 0.0 0.0 0.00 0.00 0.00 78 1016.9
20260508030330 63 314 1.0 1.0 0.00 0.00 0.00 77 1016.5
20260508025827 63 267 0.0 0.0 0.00 0.00 0.00 78 1016.9
20260508025324 63 268 0.0 0.0 0.00 0.00 0.00 78 1017.2
20260508024821 63 272 0.0 0.0 0.00 0.00 0.00 78 1016.9
20260508024317 63 268 0.0 0.0 0.00 0.00 0.00 77 1016.5
20260508023814 63 256 0.0 0.0 0.00 0.00 0.00 76 1015.8
20260508023311 63 244 0.0 0.0 0.00 0.00 0.00 76 1015.8
20260508022807 64 336 2.0 2.0 0.00 0.00 0.00 75 1015.8
20260508022306 64 43 0.0 1.0 0.00 0.00 0.00 75 1015.8
20260508021801 64 52 1.0 1.0 0.00 0.00 0.00 75 1015.8
20260508021256 64 343 2.0 2.0 0.00 0.00 0.00 75 1015.5
20260508020752 64 350 2.0 2.0 0.00 0.00 0.00 74 1015.5
20260508020251 64 45 0.0 0.0 0.00 0.00 0.00 75 1015.2
20260508015747 64 89 1.0 1.0 0.00 0.00 0.00 74 1015.2
20260508015244 64 151 0.0 0.0 0.00 0.00 0.00 74 1015.2
20260508014741 64 303 1.0 1.0 0.00 0.00 0.00 74 1015.8
20260508014238 64 282 1.0 1.0 0.00 0.00 0.00 73 1015.5
20260508013734 64 49 0.0 0.0 0.00 0.00 0.00 73 1015.2
20260508013231 64 70 1.0 1.0 0.00 0.00 0.00 73 1015.5
20260508012728 64 7 2.0 2.0 0.00 0.00 0.00 72 1015.8
20260508012225 64 293 1.0 1.0 0.00 0.00 0.00 72 1016.2
20260508011723 64 343 2.0 2.0 0.00 0.00 0.00 72 1015.8
20260508011220 65 44 0.0 1.0 0.00 0.00 0.00 71 1015.5
20260508010716 65 353 0.0 1.0 0.00 0.00 0.00 71 1015.5
20260508010215 65 354 4.0 5.0 0.00 0.00 0.00 70 1015.8
20260508005712 65 65 1.0 2.0 0.00 0.00 0.00 71 1015.2
20260508005208 65 332 1.0 2.0 0.00 0.00 0.00 70 1016.2
20260508004704 65 83 0.0 1.0 0.00 0.00 0.00 70 1015.8
20260508004200 65 271 0.0 0.0 0.00 0.00 0.00 69 1016.2
20260508003657 65 31 0.0 0.0 0.00 0.00 0.00 68 1016.2
20260508003155 66 336 3.0 3.0 0.00 0.00 0.00 68 1016.5
20260508002651 66 80 0.0 1.0 0.00 0.00 0.00 67 1016.5
20260508002149 66 69 0.0 1.0 0.00 0.00 0.00 66 1016.5
20260508001644 66 333 1.0 1.0 0.00 0.00 0.00 67 1016.5
20260508001140 66 51 0.0 1.0 0.00 0.00 0.00 66 1016.5
20260508000636 66 328 3.0 5.0 0.00 0.00 0.00 66 1016.9
20260508000133 66 4 3.0 5.0 0.00 0.00 0.00 67 1016.9
20260507235630 66 330 4.0 5.0 0.00 0.00 0.00 65 1016.9
20260507235128 66 341 2.0 3.0 0.00 0.00 0.00 66 1016.9
20260507234624 66 353 2.0 2.0 0.00 0.00 0.00 66 1016.9
20260507234120 66 51 3.0 3.0 0.00 0.00 0.00 66 1016.9
20260507233617 67 341 5.0 6.0 0.00 0.00 0.00 65 1017.5
20260507233116 68 22 3.0 5.0 0.00 0.00 0.00 65 1017.2
20260507232612 68 344 4.0 6.0 0.00 0.00 0.00 64 1017.2
20260507232109 68 52 0.0 0.0 0.00 0.00 0.00 64 1016.5
20260507231605 67 8 4.0 5.0 0.00 0.00 0.00 64 1016.9
20260507231103 68 344 4.0 5.0 0.00 0.00 0.00 65 1017.2
20260507230559 68 350 4.0 5.0 0.00 0.00 0.00 64 1016.9
20260507230056 68 36 1.0 2.0 0.00 0.00 0.00 65 1016.9
20260507225551 67 86 3.0 5.0 0.00 0.00 0.00 64 1016.9
20260507225048 67 9 5.0 6.0 0.00 0.00 0.00 65 1017.2
20260507224543 67 350 3.0 3.0 0.00 0.00 0.00 64 1017.2
20260507224040 67 340 4.0 7.0 0.00 0.00 0.00 64 1017.2
20260507223536 68 332 4.0 5.0 0.00 0.00 0.00 63 1017.5
20260507223034 68 0 5.0 6.0 0.00 0.00 0.00 63 1017.9
20260507222531 67 347 2.0 2.0 0.00 0.00 0.00 64 1017.9
20260507222027 67 344 3.0 5.0 0.00 0.00 0.00 65 1017.5
20260507221523 67 331 3.0 5.0 0.00 0.00 0.00 65 1017.5
20260507221020 67 354 3.0 5.0 0.00 0.00 0.00 64 1017.5
20260507220518 68 2 5.0 7.0 0.00 0.00 0.00 63 1017.2
20260507220015 67 357 2.0 2.0 0.00 0.00 0.00 65 1017.5
20260507215511 67 4 4.0 5.0 0.00 0.00 0.00 65 1017.5
20260507215009 67 349 3.0 3.0 0.00 0.00 0.00 65 1017.5
20260507214506 67 319 3.0 3.0 0.00 0.00 0.00 65 1017.2
20260507214001 67 310 3.0 3.0 0.00 0.00 0.00 65 1017.2
20260507213458 67 0 5.0 6.0 0.00 0.00 0.00 64 1017.2
20260507212955 67 4 3.0 3.0 0.00 0.00 0.00 65 1017.5
20260507212450 67 330 4.0 5.0 0.00 0.00 0.00 65 1017.9
20260507211948 67 16 1.0 2.0 0.00 0.00 0.00 65 1017.5
20260507211444 68 53 4.0 5.0 0.00 0.00 0.00 64 1017.9
20260507210941 67 14 5.0 7.0 0.00 0.00 0.00 65 1017.2
20260507210438 67 54 4.0 5.0 0.00 0.00 0.00 66 1017.2
20260507205935 66 339 4.0 5.0 0.00 0.00 0.00 66 1017.2
20260507205432 66 328 4.0 6.0 0.00 0.00 0.00 66 1017.2
20260507204928 66 0 6.0 7.0 0.00 0.00 0.00 67 1017.2
20260507204424 66 358 4.0 5.0 0.00 0.00 0.00 67 1017.5
20260507203922 66 53 3.0 5.0 0.00 0.00 0.00 68 1017.9
20260507203420 66 34 5.0 7.0 0.00 0.00 0.00 67 1018.2
20260507202916 66 21 3.0 5.0 0.00 0.00 0.00 68 1017.9
20260507202413 66 3 6.0 7.0 0.00 0.00 0.00 67 1017.9
20260507201908 67 9 2.0 2.0 0.00 0.00 0.00 69 1018.2
20260507201404 66 341 5.0 6.0 0.00 0.00 0.00 68 1018.2
20260507200901 66 53 1.0 2.0 0.00 0.00 0.00 68 1017.9
20260507200356 66 0 5.0 8.0 0.00 0.00 0.00 69 1017.9
20260507195852 66 26 5.0 8.0 0.00 0.00 0.00 70 1017.9
20260507195350 65 8 6.0 9.0 0.00 0.00 0.00 71 1017.9
20260507194847 65 0 6.0 7.0 0.00 0.00 0.00 73 1018.2
20260507194344 64 26 3.0 5.0 0.00 0.00 0.00 77 1017.9
20260507193840 64 344 5.0 6.0 0.00 0.00 0.00 77 1018.5
20260507193338 64 88 5.0 6.0 0.00 0.00 0.00 78 1018.2
20260507192833 64 37 0.0 1.0 0.00 0.00 0.00 75 1018.2
20260507192330 64 9 3.0 5.0 0.00 0.00 0.00 73 1018.5
20260507191826 64 359 5.0 6.0 0.00 0.00 0.00 71 1018.9
20260507191322 64 39 1.0 1.0 0.00 0.00 0.00 71 1018.5
20260507190820 64 45 1.0 2.0 0.00 0.00 0.00 71 1018.9
20260507190318 64 14 4.0 6.0 0.00 0.00 0.00 71 1018.9
20260507185817 64 344 3.0 6.0 0.00 0.00 0.00 71 1018.9
20260507185313 65 12 2.0 3.0 0.00 0.00 0.00 71 1018.9
20260507184810 65 11 1.0 1.0 0.00 0.00 0.00 69 1018.9
20260507184308 65 341 6.0 7.0 0.00 0.00 0.00 69 1018.9
20260507183805 66 344 5.0 6.0 0.00 0.00 0.00 70 1019.7
20260507183302 65 1 3.0 5.0 0.00 0.00 0.00 71 1019.3
20260507182759 64 3 6.0 9.0 0.00 0.00 0.00 71 1019.7
20260507182254 65 12 6.0 7.0 0.00 0.00 0.00 70 1019.3
20260507181751 65 342 4.0 6.0 0.00 0.00 0.00 70 1018.9
20260507181247 64 7 7.0 9.0 0.00 0.00 0.00 71 1018.9
20260507180744 64 71 6.0 7.0 0.00 0.00 0.00 71 1018.9
20260507180241 64 68 2.0 2.0 0.00 0.00 0.00 72 1018.5
20260507175736 64 45 1.0 2.0 0.00 0.00 0.00 71 1018.9
20260507175234 64 11 5.0 6.0 0.00 0.00 0.00 72 1018.9
20260507174731 63 332 1.0 2.0 0.00 0.00 0.00 74 1019.3
20260507174229 63 315 2.0 2.0 0.00 0.00 0.00 73 1018.9
20260507173726 63 44 1.0 1.0 0.00 0.00 0.00 74 1018.9
20260507173223 62 46 1.0 2.0 0.00 0.00 0.00 74 1018.5
20260507172720 62 341 1.0 1.0 0.00 0.00 0.00 75 1018.9
20260507172217 62 42 0.0 1.0 0.00 0.00 0.00 74 1018.9
20260507171716 62 56 2.0 3.0 0.00 0.00 0.00 75 1019.7
20260507171214 62 346 4.0 5.0 0.00 0.00 0.00 76 1020.3
20260507170711 61 51 2.0 2.0 0.00 0.00 0.00 76 1019.7
20260507170208 61 21 2.0 2.0 0.00 0.00 0.00 77 1020.0
20260507165703 61 25 5.0 6.0 0.00 0.00 0.00 76 1020.0
20260507165200 61 349 3.0 3.0 0.00 0.00 0.00 78 1020.0
20260507164656 61 52 3.0 6.0 0.00 0.00 0.00 80 1020.0
20260507164153 60 5 7.0 9.0 0.00 0.00 0.00 79 1020.0
20260507163650 60 339 6.0 10.0 0.00 0.00 0.00 79 1019.7
20260507163148 61 75 3.0 6.0 0.00 0.00 0.00 80 1020.0
20260507162644 61 6 5.0 6.0 0.00 0.00 0.00 79 1020.3
20260507162140 60 18 3.0 3.0 0.00 0.00 0.00 78 1020.3
20260507161636 61 357 5.0 7.0 0.00 0.00 0.00 78 1020.3
20260507161133 61 1 6.0 7.0 0.00 0.00 0.00 79 1020.3
20260507160630 61 8 8.0 9.0 0.00 0.00 0.00 80 1019.7
20260507160126 61 350 7.0 8.0 0.00 0.00 0.00 81 1019.7
20260507155622 61 341 4.0 5.0 0.00 0.00 0.00 81 1019.7
20260507155119 60 319 3.0 5.0 0.00 0.00 0.00 82 1020.3
20260507154615 60 29 3.0 5.0 0.00 0.00 0.00 82 1020.3
20260507154113 60 334 5.0 6.0 0.00 0.00 0.00 82 1020.7
20260507153609 60 340 4.0 5.0 0.00 0.00 0.00 82 1020.7
20260507153106 60 341 4.0 5.0 0.00 0.00 0.00 82 1020.7
20260507152602 60 30 3.0 3.0 0.00 0.00 0.00 83 1020.7
20260507152058 60 354 4.0 5.0 0.00 0.00 0.00 82 1020.3
20260507151554 60 2 5.0 6.0 0.00 0.00 0.00 83 1020.3
20260507151051 60 4 2.0 3.0 0.00 0.00 0.00 83 1020.7
20260507150549 60 359 3.0 6.0 0.00 0.00 0.00 83 1020.3
20260507150045 60 14 8.0 10.0 0.00 0.00 0.00 83 1020.7
20260507145540 60 7 3.0 5.0 0.00 0.00 0.00 83 1020.7
20260507145038 60 310 3.0 3.0 0.00 0.00 0.00 83 1020.3
20260507144534 60 17 4.0 5.0 0.00 0.00 0.00 82 1020.3
20260507144032 60 20 2.0 2.0 0.00 0.00 0.00 83 1020.0
20260507143529 60 349 4.0 5.0 0.00 0.00 0.00 83 1019.7
20260507143027 60 358 7.0 9.0 0.00 0.00 0.00 83 1020.0
20260507142522 60 64 5.0 7.0 0.00 0.00 0.00 83 1020.3
20260507142019 60 345 4.0 6.0 0.00 0.00 0.00 83 1020.3
20260507141515 60 34 6.0 8.0 0.00 0.00 0.00 83 1019.7
20260507141012 60 28 6.0 8.0 0.00 0.00 0.00 84 1019.7
20260507140509 60 14 10.0 11.0 0.00 0.00 0.00 84 1020.0
20260507140006 60 9 3.0 5.0 0.00 0.00 0.00 84 1019.7
20260507135503 60 17 9.0 10.0 0.00 0.00 0.00 84 1020.0
20260507135000 60 8 7.0 9.0 0.00 0.00 0.00 84 1019.3
20260507134456 60 57 4.0 6.0 0.00 0.00 0.00 84 1019.7
20260507133952 61 19 7.0 8.0 0.00 0.00 0.00 85 1019.7
20260507133448 61 21 5.0 6.0 0.00 0.00 0.00 85 1019.3
20260507132947 61 357 3.0 3.0 0.00 0.00 0.00 85 1018.9
20260507132443 60 18 3.0 3.0 0.00 0.00 0.00 85 1018.9
20260507131939 60 57 2.0 3.0 0.00 0.00 0.00 86 1019.3
20260507131436 60 55 4.0 6.0 0.00 0.00 0.00 86 1018.9
20260507130933 60 309 3.0 5.0 0.00 0.00 0.00 86 1019.7
20260507130431 60 35 5.0 7.0 0.00 0.00 0.00 86 1019.3
20260507125929 60 9 5.0 7.0 0.00 0.00 0.00 86 1019.3
20260507125427 60 8 5.0 7.0 0.00 0.00 0.00 86 1019.3
20260507124924 60 52 4.0 6.0 0.00 0.00 0.00 86 1019.3
20260507124420 60 77 3.0 5.0 0.00 0.00 0.00 87 1019.3
20260507123919 60 347 6.0 7.0 0.00 0.00 0.00 87 1019.3
20260507123418 60 15 6.0 8.0 0.00 0.00 0.00 87 1019.3
20260507122912 60 19 6.0 8.0 0.00 0.00 0.00 87 1018.9
20260507122407 60 42 6.0 8.0 0.00 0.00 0.00 87 1018.9
20260507121904 60 344 4.0 6.0 0.00 0.00 0.00 87 1019.3
20260507121359 60 42 2.0 3.0 0.00 0.00 0.00 88 1018.9
20260507120856 59 358 6.0 7.0 0.00 0.00 0.00 88 1018.5
20260507120352 59 49 2.0 3.0 0.00 0.00 0.00 88 1018.5
20260507115848 59 279 3.0 3.0 0.00 0.00 0.00 88 1018.2
20260507115344 59 353 4.0 5.0 0.00 0.00 0.00 88 1018.5
20260507114840 59 31 4.0 5.0 0.00 0.00 0.00 88 1018.2
20260507114337 59 26 5.0 6.0 0.00 0.00 0.00 88 1018.2
20260507113835 60 357 3.0 3.0 0.00 0.00 0.00 88 1018.5
20260507113332 59 13 2.0 3.0 0.00 0.00 0.00 87 1018.5
20260507112829 59 292 3.0 3.0 0.00 0.00 0.00 87 1018.2
20260507112326 59 10 2.0 3.0 0.00 0.00 0.00 88 1018.2
20260507111824 60 261 4.0 5.0 0.00 0.00 0.00 88 1018.5
20260507111320 60 306 3.0 3.0 0.00 0.00 0.00 87 1018.5
20260507110816 60 2 5.0 7.0 0.00 0.00 0.00 87 1018.2
20260507110313 59 345 1.0 2.0 0.00 0.00 0.00 87 1018.2
20260507105810 60 1 5.0 7.0 0.00 0.00 0.00 87 1018.5
20260507105307 60 45 4.0 5.0 0.00 0.00 0.00 87 1018.5
20260507104804 60 351 4.0 5.0 0.00 0.00 0.00 87 1018.2
20260507104300 60 10 6.0 8.0 0.00 0.00 0.00 87 1018.2
20260507103756 60 350 5.0 6.0 0.00 0.00 0.00 87 1017.9
20260507103252 60 2 5.0 6.0 0.00 0.00 0.00 87 1017.9
20260507102749 60 85 6.0 9.0 0.00 0.00 0.00 87 1017.9
20260507102246 60 4 4.0 6.0 0.00 0.00 0.00 87 1017.9
20260507101742 60 12 7.0 8.0 0.00 0.00 0.00 86 1017.9
20260507101237 60 347 6.0 7.0 0.00 0.00 0.00 86 1017.5
20260507100734 60 352 3.0 3.0 0.00 0.00 0.00 86 1017.9
20260507100233 60 344 5.0 6.0 0.00 0.00 0.00 86 1017.2
20260507095730 60 12 4.0 6.0 0.00 0.00 0.00 86 1017.9
20260507095226 60 19 3.0 3.0 0.00 0.00 0.00 86 1017.9
20260507094723 60 295 3.0 5.0 0.00 0.00 0.00 86 1017.5
20260507094220 60 332 4.0 5.0 0.00 0.00 0.00 86 1017.5
20260507093717 60 24 2.0 3.0 0.00 0.00 0.00 86 1017.5
20260507093216 60 358 6.0 7.0 0.00 0.00 0.00 85 1017.2
20260507092713 60 43 5.0 7.0 0.00 0.00 0.00 85 1017.5
20260507092209 60 15 4.0 5.0 0.00 0.00 0.00 85 1017.2
20260507091705 60 5 4.0 6.0 0.00 0.00 0.00 85 1017.5
20260507091202 60 4 4.0 5.0 0.00 0.00 0.00 85 1017.2
20260507090657 60 336 4.0 5.0 0.00 0.00 0.00 85 1017.2
20260507090155 60 15 4.0 5.0 0.00 0.00 0.00 85 1017.2
20260507085652 61 356 2.0 2.0 0.00 0.00 0.00 85 1017.2
20260507085148 61 349 2.0 2.0 0.00 0.00 0.00 85 1017.5
20260507084646 61 5 2.0 2.0 0.00 0.00 0.00 85 1017.2
20260507084142 61 358 3.0 3.0 0.00 0.00 0.00 84 1017.2
20260507083639 61 340 3.0 3.0 0.00 0.00 0.00 84 1017.5
20260507083136 61 8 4.0 5.0 0.00 0.00 0.00 84 1017.2
20260507082631 61 287 0.0 0.0 0.00 0.00 0.00 85 1017.2
20260507082128 61 341 4.0 5.0 0.00 0.00 0.00 85 1017.2
20260507081625 61 20 1.0 1.0 0.00 0.00 0.00 85 1016.9
20260507081121 61 323 1.0 2.0 0.00 0.00 0.00 85 1016.9
20260507080618 61 333 2.0 2.0 0.00 0.00 0.00 84 1016.5
20260507080114 61 334 1.0 1.0 0.00 0.00 0.00 85 1016.9
20260507075609 61 332 1.0 2.0 0.00 0.00 0.00 85 1016.9
20260507075105 61 334 3.0 3.0 0.00 0.00 0.00 85 1016.5
20260507074603 61 18 2.0 2.0 0.00 0.00 0.00 85 1016.5
20260507074101 61 320 1.0 2.0 0.00 0.00 0.00 85 1016.9
20260507073556 61 353 3.0 3.0 0.00 0.00 0.00 85 1016.5
20260507073053 61 19 1.0 1.0 0.00 0.00 0.00 84 1017.2
20260507072550 61 257 0.0 0.0 0.00 0.00 0.00 84 1017.2
20260507072048 61 331 2.0 2.0 0.00 0.00 0.00 84 1016.9
20260507071545 61 341 3.0 3.0 0.00 0.00 0.00 84 1016.9
20260507071041 61 345 2.0 2.0 0.00 0.00 0.00 84 1016.9
20260507070538 61 327 2.0 2.0 0.00 0.00 0.00 83 1016.9
20260507070035 61 337 3.0 3.0 0.00 0.00 0.00 83 1017.2
20260507065532 61 302 2.0 2.0 0.00 0.00 0.00 83 1017.2